Weather History for Erzurum, Turkey

Change the Weather History Date:

Friday, May 24, 2013

  Actual Average Record
Temperature  
Mean Temperature 58 °F -  
Max Temperature 77 °F 68 °F 78 °F (2007)
Min Temperature 39 °F 45 °F 33 °F (2000)
Degree Days  
Heating Degree Days 7    
Growing Degree Days 8 (Base 50)    
Moisture  
Dew Point 46 °F    
Average Humidity 70    
Maximum Humidity 94    
Minimum Humidity 18    
Precipitation  
Precipitation 0.04 in 0.07 in - ()
Sea Level Pressure  
Sea Level Pressure 30.20 in    
Wind  
Wind Speed 4 mph ()    
Max Wind Speed 25 mph    
Max Gust Speed 38 mph    
Visibility 6.7 miles    
Events Rain , Thunderstorm    
Averages and records for this station are not official NWS values.
T = Trace of Precipitation, MM = Missing Value Source: Averaged Metar Reports

Daily Weather History Graph

Daily Weather History Graph

Search for Another Location

Airport:

Trip Planner

Search our weather history database for the weather conditions in past years. The results will help you decide how hot, cold, wet, or windy it might be!

Date:

Astronomy

May. 24, 2013 Rise Set
Actual Time 4:53 AM EEST 7:31 PM EEST
Civil Twilight 4:21 AM EEST 8:03 PM EEST
Nautical Twilight 3:42 AM EEST 8:42 PM EEST
Astronomical Twilight 2:58 AM EEST 9:27 PM EEST
Moon 6:48 PM EEST (5/24) 4:07 AM EEST (5/24)
Length of Visible Light 15h 41m
Length of Day
14h 38m
Waxing Gibbous, 99% of the Moon is Illuminated
May 24
Waxing Gibbous
May 25
Full
May 31
Last Quarter
Jun 8
New
Jun 16
First Quarter

Hourly Weather History & Observations

Time (EEST) Temp. Windchill Dew Point Humidity Pressure Visibility Wind Dir Wind Speed Gust Speed Precip Events Conditions
12:20 AM 46.4 °F - 42.8 °F 87% 30.21 in 6.2 mi Variable 1.2 mph - N/A   Partly Cloudy
12:50 AM 46.4 °F - 42.8 °F 87% 30.21 in 6.2 mi Calm Calm - N/A   Partly Cloudy
1:20 AM 42.8 °F - 41.0 °F 93% 30.21 in - Variable 1.2 mph - N/A   Clear
1:50 AM 44.6 °F 42.2 °F 41.0 °F 87% 30.21 in - WSW 4.6 mph - N/A   Clear
2:20 AM 44.6 °F 43.1 °F 41.0 °F 87% 30.21 in - WNW 3.5 mph - N/A   Clear
2:50 AM 42.8 °F - 41.0 °F 93% 30.21 in - SE 2.3 mph - N/A   Clear
3:00 AM 42 °F - 40 °F 90%  in 12 mi SE 2.3 mph - -  
3:20 AM 42.8 °F - 41.0 °F 93% 30.21 in - Variable 2.3 mph - N/A   Clear
3:50 AM 41.0 °F - 39.2 °F 93% 30.21 in - Calm Calm - N/A   Clear
4:20 AM 41.0 °F - 39.2 °F 93% 30.21 in 6.2 mi Calm Calm - N/A   Partly Cloudy
4:50 AM 42.8 °F - 41.0 °F 93% 30.21 in 6.2 mi Calm Calm - N/A   Partly Cloudy
5:20 AM 41.0 °F - 39.2 °F 93% 30.21 in 6.2 mi Calm Calm - N/A   Partly Cloudy
5:50 AM 44.6 °F 42.2 °F 41.0 °F 87% 30.21 in 6.2 mi WSW 4.6 mph - N/A   Scattered Clouds
6:20 AM 46.4 °F - 42.8 °F 87% 30.21 in 6.2 mi Variable 2.3 mph - N/A   Mostly Cloudy
6:50 AM 50.0 °F - 44.6 °F 82% 30.21 in 6.2 mi Calm Calm - N/A   Scattered Clouds
7:20 AM 53.6 °F - 44.6 °F 72% 30.21 in 6.2 mi West 3.5 mph - N/A   Scattered Clouds
7:50 AM 55.4 °F - 48.2 °F 77% 30.21 in 6.2 mi Variable 1.2 mph - N/A   Scattered Clouds
8:20 AM 59.0 °F - 48.2 °F 67% 30.21 in 6.2 mi East 3.5 mph - N/A   Scattered Clouds
8:50 AM 62.6 °F - 46.4 °F 55% 30.21 in 6.2 mi Variable 2.3 mph - N/A   Scattered Clouds
9:00 AM 62 °F - 44 °F 39%  in 12 mi NNE 2.3 mph - -   Partly Cloudy
9:20 AM 62.6 °F - 48.2 °F 59% 30.21 in 6.2 mi Variable 2.3 mph - N/A   Scattered Clouds
9:50 AM 66.2 °F - 46.4 °F 49% 30.21 in 6.2 mi North 4.6 mph - N/A   Scattered Clouds
10:20 AM 68.0 °F - 48.2 °F 49% 30.21 in 6.2 mi Variable 2.3 mph - N/A   Scattered Clouds
10:50 AM 68.0 °F - 48.2 °F 49% 30.21 in 6.2 mi Variable 4.6 mph - N/A   Scattered Clouds
11:20 AM 71.6 °F - 48.2 °F 43% 30.18 in 6.2 mi NNE 4.6 mph - N/A   Scattered Clouds
11:50 AM 71.6 °F - 48.2 °F 43% 30.18 in 6.2 mi Variable 3.5 mph - N/A   Scattered Clouds
12:20 PM 73.4 °F - 42.8 °F 33% 30.18 in 6.2 mi West 12.7 mph - N/A   Scattered Clouds
12:50 PM 75.2 °F - 42.8 °F 31% 30.18 in 6.2 mi West 10.4 mph - N/A   Scattered Clouds
1:20 PM 73.4 °F - 42.8 °F 33% 30.15 in 6.2 mi WSW 8.1 mph - N/A   Scattered Clouds
1:50 PM 73.4 °F - 42.8 °F 33% 30.15 in 6.2 mi WSW 11.5 mph - N/A   Scattered Clouds
2:20 PM 77.0 °F - 41.0 °F 28% 30.12 in 6.2 mi West 8.1 mph - N/A   Scattered Clouds
2:50 PM 77.0 °F - 42.8 °F 29% 30.12 in 6.2 mi West 10.4 mph - N/A   Scattered Clouds
3:00 PM 77 °F - 42 °F 18%  in 12 mi West 10.4 mph - -   Partly Cloudy
3:20 PM 75.2 °F - 42.8 °F 31% 30.12 in 6.2 mi West 6.9 mph - N/A   Scattered Clouds
3:50 PM 71.6 °F - 44.6 °F 38% 30.12 in 6.2 mi WNW 15.0 mph - N/A   Mostly Cloudy
4:20 PM 69.8 °F - 42.8 °F 38% 30.12 in 6.2 mi WNW 13.8 mph - N/A Rain , Thunderstorm Light Thunderstorms and Rain
4:50 PM 66.2 °F - 44.6 °F 46% 30.15 in 6.2 mi WNW 16.1 mph - N/A Rain , Thunderstorm Light Thunderstorms and Rain
5:00 PM 66.2 °F - 44.6 °F 46% 30.15 in 6.2 mi WNW 17.3 mph - N/A   Mostly Cloudy
5:20 PM 62.6 °F - 48.2 °F 59% 30.21 in 6.2 mi West 18.4 mph - N/A   Mostly Cloudy
5:33 PM 62.6 °F - 48.2 °F 59% 30.21 in 6.2 mi West 25.3 mph 38.0 mph N/A Rain , Thunderstorm Light Thunderstorms and Rain
5:50 PM 57.2 °F - 51.8 °F 82% 30.24 in 6.2 mi WSW 21.9 mph - N/A Rain , Thunderstorm Light Thunderstorms and Rain
6:20 PM 55.4 °F - 51.8 °F 88% 30.24 in 6.2 mi SSW 4.6 mph - N/A Rain Light Rain Showers
6:50 PM 55.4 °F - 51.8 °F 88% 30.21 in 6.2 mi SSE 4.6 mph - N/A Rain Light Rain Showers
7:20 PM 55.4 °F - 51.8 °F 88% 30.18 in 6.2 mi Variable 2.3 mph - N/A   Mostly Cloudy
7:50 PM 55.4 °F - 51.8 °F 88% 30.21 in 6.2 mi NW 3.5 mph - N/A   Mostly Cloudy
8:20 PM 53.6 °F - 51.8 °F 94% 30.21 in 6.2 mi North 6.9 mph - N/A   Mostly Cloudy
8:50 PM 53.6 °F - 51.8 °F 94% 30.21 in 6.2 mi NNE 3.5 mph - N/A   Mostly Cloudy
9:00 PM 54 °F - 51 °F 88%  in 12 mi NNE 3.5 mph - -   Partly Cloudy
9:20 PM 53.6 °F - 51.8 °F 94% 30.24 in 6.2 mi SSE 5.8 mph - N/A   Mostly Cloudy
9:50 PM 53.6 °F - 51.8 °F 94% 30.21 in 6.2 mi SSE 4.6 mph - N/A   Mostly Cloudy
10:18 PM 53.6 °F - 51.8 °F 94% 30.21 in 6.2 mi SW 4.6 mph - N/A Rain Light Rain Showers
10:20 PM 53.6 °F - 51.8 °F 94% 30.21 in 6.2 mi SW 4.6 mph - N/A Rain Light Rain Showers
10:50 PM 53.6 °F - 51.8 °F 94% 30.21 in 6.2 mi SW 6.9 mph - N/A Rain Light Rain Showers
11:20 PM 55.4 °F - 51.8 °F 88% 30.21 in 6.2 mi SSW 6.9 mph - N/A   Mostly Cloudy
11:35 PM 55.4 °F - 50.0 °F 82% 30.21 in 6.2 mi SSW 6.9 mph - N/A Rain Light Rain Showers
11:50 PM 55.4 °F - 48.2 °F 77% 30.21 in 6.2 mi SSW 9.2 mph - N/A Rain Light Rain Showers